Valentine, NE

4:14 AM CDT on May 24, 2017 (GMT -0500)
Miller Field

Weather History for KVTN - August, 2014

Change the Weather History Date:

Saturday, August 30, 2014

  Actual Average Record
Temperature  
Mean Temperature 69 °F 70 °F  
Max Temperature 86 °F 84 °F 102 °F (1948)
Min Temperature 51 °F 55 °F 34 °F (1935)
Degree Days  
Heating Degree Days 0 2  
Month to date heating degree days 2 12  
Since 1 June heating degree days 75 81  
Since 1 July heating degree days 21 20  
Cooling Degree Days 4 6  
Month to date cooling degree days 232 254  
Year to date cooling degree days 634 729  
Since 1 June cooling degree days 573 695  
Growing Degree Days 18 (Base 50)    
Moisture  
Dew Point 57 °F    
Average Humidity 72    
Maximum Humidity 100    
Minimum Humidity 44    
Precipitation  
Precipitation 0.00 in 0.04 in 1.12 in (1951)
Month to date precipitation 2.41 2.13  
Year to date precipitation 18.83 16.06  
Snow  
Snow 0.00 in 0.00 in 0.00 in ()
Month to date snowfall 0.0 0.0  
Since 1 June snowfall 0.0 0.0  
Since 1 July snowfall 0.0 0.0  
Snow Depth 0.00 in    
Sea Level Pressure  
Sea Level Pressure 29.89 in    
Wind  
Wind Speed 10 mph (SSE)    
Max Wind Speed 33 mph    
Max Gust Speed 41 mph    
Visibility 9 miles    
Events Fog    
T = Trace of Precipitation, MM = Missing Value Source: NWS Daily Summary

Daily Weather History Graph

Daily Weather History Graph

Search for Another Location

Airport or City:

Trip Planner

Search our weather history database for the weather conditions in past years. The results will help you decide how hot, cold, wet, or windy it might be!

Date:

Astronomy

Aug. 30, 2014 Rise Set
Actual Time 7:04 AM CDT 8:20 PM CDT
Civil Twilight 6:35 AM CDT 8:49 PM CDT
Nautical Twilight 6:00 AM CDT 9:24 PM CDT
Astronomical Twilight 5:23 AM CDT 10:01 PM CDT
Moon 12:01 PM CDT (8/30) 10:47 PM CDT (8/30)
Length of Visible Light 14h 13m
Length of Day
13h 15m
Waxing Crescent, 23% of the Moon is Illuminated
Aug 30
Waxing Crescent
Sep 2
First Quarter
Sep 8
Full
Sep 15
Last Quarter
Sep 24
New

Hourly Weather History & Observations

Time (CDT) Temp. Heat Index Dew Point Humidity Pressure Visibility Wind Dir Wind Speed Gust Speed Precip Events Conditions
12:52 AM 57.0 °F - 55.0 °F 93% 29.95 in 10.0 mi WNW 6.9 mph - N/A   Clear
1:52 AM 55.9 °F - 54.0 °F 93% 29.96 in 10.0 mi WNW 3.5 mph - N/A   Clear
2:52 AM 55.0 °F - 54.0 °F 96% 29.96 in 10.0 mi WSW 3.5 mph - N/A   Clear
3:18 AM 55.0 °F - 54.0 °F 96% 30.01 in 10.0 mi WNW 3.5 mph - N/A   Scattered Clouds
3:52 AM 54.0 °F - 53.1 °F 97% 29.96 in 10.0 mi Calm Calm - N/A   Clear
4:52 AM 53.1 °F - 52.0 °F 96% 29.96 in 10.0 mi WSW 3.5 mph - N/A   Clear
5:52 AM 53.1 °F - 52.0 °F 96% 29.96 in 10.0 mi Calm Calm - N/A   Clear
6:20 AM 51.1 °F - 51.1 °F 100% 30.00 in 10.0 mi Calm Calm - N/A   Partly Cloudy
6:36 AM 52.0 °F - 51.1 °F 97% 30.00 in 10.0 mi Calm Calm - N/A   Mostly Cloudy
6:52 AM 53.1 °F - 52.0 °F 96% 29.97 in 10.0 mi Calm Calm - N/A   Overcast
7:14 AM 55.0 °F - 54.0 °F 96% 30.01 in 10.0 mi Calm Calm - N/A   Overcast
7:26 AM 55.9 °F - 55.9 °F 100% 30.01 in 1.2 mi SE 4.6 mph - N/A   Overcast
7:33 AM 55.9 °F - 55.9 °F 100% 30.01 in 0.2 mi SE 5.8 mph - N/A Fog Fog
7:52 AM 57.0 °F - 57.0 °F 100% 29.98 in 0.2 mi SE 3.5 mph - N/A Fog Fog
8:35 AM 57.0 °F - 57.0 °F 100% 30.00 in 1.2 mi ESE 5.8 mph - N/A   Overcast
8:52 AM 57.0 °F - 57.0 °F 100% 29.98 in 2.0 mi SE 6.9 mph - N/A   Overcast
9:05 AM 57.9 °F - 57.0 °F 97% 30.01 in 6.0 mi ESE 6.9 mph - N/A   Overcast
9:52 AM 60.1 °F - 57.9 °F 93% 29.98 in 10.0 mi SE 6.9 mph - N/A   Scattered Clouds
10:52 AM 68.0 °F - 59.0 °F 73% 29.95 in 10.0 mi SE 9.2 mph - N/A   Clear
11:52 AM 73.0 °F - 59.0 °F 61% 29.91 in 10.0 mi SE 9.2 mph - N/A   Clear
12:52 PM 78.1 °F - 60.1 °F 54% 29.88 in 10.0 mi South 11.5 mph - N/A   Clear
1:52 PM 80.1 °F 80.7 °F 59.0 °F 48% 29.84 in 10.0 mi SSE 17.3 mph 23.0 mph N/A   Clear
2:52 PM 81.0 °F 81.3 °F 59.0 °F 47% 29.82 in 10.0 mi South 18.4 mph 27.6 mph N/A   Clear
3:52 PM 84.0 °F 84.0 °F 60.1 °F 44% 29.78 in 10.0 mi South 18.4 mph 23.0 mph N/A   Clear
4:52 PM 84.9 °F 85.0 °F 61.0 °F 44% 29.74 in 10.0 mi SSE 18.4 mph 26.5 mph N/A   Clear
5:52 PM 84.9 °F 84.8 °F 60.1 °F 43% 29.72 in 10.0 mi SSE 19.6 mph 29.9 mph N/A   Clear
6:52 PM 84.0 °F 84.5 °F 62.1 °F 47% 29.71 in 10.0 mi SSE 17.3 mph 25.3 mph N/A   Clear
7:52 PM 80.1 °F 81.5 °F 63.0 °F 56% 29.69 in 10.0 mi SSE 16.1 mph - N/A   Clear
8:52 PM 75.9 °F - 63.0 °F 64% 29.70 in 10.0 mi SE 9.2 mph - N/A   Clear
9:52 PM 75.2 °F - 62.6 °F 65% 29.75 in 10.0 mi South 13.8 mph - N/A   Clear
10:52 PM 73.9 °F - 63.0 °F 68% 29.68 in 10.0 mi South 20.7 mph 27.6 mph N/A   Clear
11:11 PM 77.0 °F - 63.0 °F 62% 29.76 in 10.0 mi SSW 33.4 mph 40.3 mph N/A   Scattered Clouds
11:52 PM 75.9 °F - 63.0 °F 64% 29.71 in 10.0 mi SSW 12.7 mph - N/A   Mostly Cloudy